| time (UTC) | temp F | wind direction | speed MPH | gust MPH | rain 1hr in | rain 24hr in | rain mn in | humidity % | barometer mb |
| 20260505152013 | 70 | 103 | 1.0 | 10.0 | 0.00 | 0.00 | 0.00 | 61 | 1008.8 |
| 20260505151537 | 70 | 252 | 3.0 | 10.0 | 0.00 | 0.00 | 0.00 | 60 | 1008.7 |
| 20260505151012 | 69 | 89 | 2.0 | 7.0 | 0.00 | 0.00 | 0.00 | 62 | 1008.7 |
| 20260505150511 | 68 | 241 | 3.0 | 7.0 | 0.00 | 0.00 | 0.00 | 63 | 1008.6 |
| 20260505140514 | 66 | 175 | 3.0 | 7.0 | 0.00 | 0.00 | 0.00 | 68 | 1008.2 |
| 20260505125014 | 61 | 0 | 0.0 | 3.0 | 0.00 | 0.00 | 0.00 | 77 | 1008.1 |
| 20260505124530 | 61 | 207 | 0.0 | 5.0 | 0.00 | 0.00 | 0.00 | 77 | 1008.1 |
| 20260505124014 | 60 | 0 | 0.0 | 6.0 | 0.00 | 0.00 | 0.00 | 76 | 1008.0 |
| 20260505123514 | 60 | 198 | 1.0 | 6.0 | 0.00 | 0.00 | 0.00 | 76 | 1008.1 |
| 20260505123050 | 60 | 204 | 1.0 | 7.0 | 0.00 | 0.00 | 0.00 | 76 | 1008.0 |
| 20260505122511 | 60 | 162 | 1.0 | 9.0 | 0.00 | 0.00 | 0.00 | 76 | 1007.9 |
| 20260505122011 | 60 | 207 | 2.0 | 9.0 | 0.00 | 0.00 | 0.00 | 76 | 1007.7 |
| 20260505121528 | 60 | 195 | 2.0 | 9.0 | 0.00 | 0.00 | 0.00 | 76 | 1007.4 |
| 20260505121009 | 60 | 94 | 1.0 | 7.0 | 0.00 | 0.00 | 0.00 | 77 | 1007.4 |
| 20260505120509 | 60 | 150 | 0.0 | 5.0 | 0.00 | 0.00 | 0.00 | 77 | 1007.3 |
| 20260505120030 | 60 | 0 | 0.0 | 5.0 | 0.00 | 0.00 | 0.00 | 76 | 1007.5 |
| 20260505115513 | 60 | 0 | 0.0 | 4.0 | 0.00 | 0.00 | 0.00 | 76 | 1007.5 |
| 20260505115011 | 60 | 0 | 0.0 | 4.0 | 0.00 | 0.00 | 0.00 | 75 | 1007.4 |
| 20260505114527 | 60 | 198 | 0.0 | 4.0 | 0.00 | 0.00 | 0.00 | 75 | 1007.6 |
| 20260505114013 | 61 | 0 | 0.0 | 5.0 | 0.00 | 0.00 | 0.00 | 74 | 1007.5 |
| 20260505113510 | 61 | 0 | 0.0 | 5.0 | 0.00 | 0.00 | 0.00 | 74 | 1007.5 |
| 20260505113035 | 61 | 290 | 0.0 | 4.0 | 0.00 | 0.00 | 0.00 | 74 | 1007.7 |
| 20260505112509 | 61 | 0 | 0.0 | 4.0 | 0.00 | 0.00 | 0.00 | 73 | 1007.7 |
| 20260505112015 | 61 | 240 | 1.0 | 4.0 | 0.00 | 0.00 | 0.00 | 73 | 1007.7 |
| 20260505111549 | 61 | 252 | 1.0 | 4.0 | 0.00 | 0.00 | 0.00 | 72 | 1007.8 |
| 20260505111015 | 61 | 243 | 1.0 | 6.0 | 0.00 | 0.00 | 0.00 | 72 | 1007.8 |
| 20260505110513 | 61 | 0 | 0.0 | 6.0 | 0.00 | 0.00 | 0.00 | 72 | 1007.7 |
| 20260505102016 | 62 | 0 | 0.0 | 0.0 | 0.00 | 0.00 | 0.00 | 68 | 1007.5 |
| 20260505101533 | 62 | 0 | 0.0 | 0.0 | 0.00 | 0.00 | 0.00 | 68 | 1007.5 |
| 20260505101012 | 62 | 0 | 0.0 | 0.0 | 0.00 | 0.00 | 0.00 | 68 | 1007.5 |
| 20260505100510 | 62 | 0 | 0.0 | 0.0 | 0.00 | 0.00 | 0.00 | 68 | 1007.6 |
| 20260505100034 | 62 | 0 | 0.0 | 0.0 | 0.00 | 0.00 | 0.00 | 67 | 1007.6 |
| 20260505095511 | 62 | 0 | 0.0 | 2.0 | 0.00 | 0.00 | 0.00 | 67 | 1007.5 |
| 20260505095010 | 62 | 0 | 0.0 | 2.0 | 0.00 | 0.00 | 0.00 | 66 | 1007.4 |
| 20260505094530 | 63 | 0 | 0.0 | 2.0 | 0.00 | 0.00 | 0.00 | 66 | 1007.4 |
| 20260505094015 | 63 | 0 | 0.0 | 3.0 | 0.00 | 0.00 | 0.00 | 65 | 1007.5 |
| 20260505093512 | 63 | 0 | 0.0 | 5.0 | 0.00 | 0.00 | 0.00 | 65 | 1007.4 |
| 20260505093031 | 63 | 250 | 1.0 | 5.0 | 0.00 | 0.00 | 0.00 | 65 | 1007.1 |
| 20260505092513 | 63 | 233 | 2.0 | 5.0 | 0.00 | 0.00 | 0.00 | 64 | 1007.1 |
| 20260505092014 | 63 | 241 | 1.0 | 5.0 | 0.00 | 0.00 | 0.00 | 64 | 1007.1 |
| 20260505091534 | 63 | 247 | 1.0 | 4.0 | 0.00 | 0.00 | 0.00 | 64 | 1007.1 |
| 20260505091011 | 64 | 0 | 1.0 | 4.0 | 0.00 | 0.00 | 0.00 | 63 | 1007.0 |
| 20260505090512 | 64 | 243 | 2.0 | 4.0 | 0.00 | 0.00 | 0.00 | 63 | 1007.1 |
| 20260505090037 | 64 | 250 | 2.0 | 5.0 | 0.00 | 0.00 | 0.00 | 62 | 1007.1 |
| 20260505085512 | 64 | 246 | 2.0 | 5.0 | 0.00 | 0.00 | 0.00 | 62 | 1007.0 |
| 20260505085015 | 64 | 254 | 2.0 | 8.0 | 0.00 | 0.00 | 0.00 | 62 | 1006.9 |
| 20260505084531 | 64 | 211 | 2.0 | 8.0 | 0.00 | 0.00 | 0.00 | 63 | 1006.8 |
| 20260505084010 | 64 | 273 | 2.0 | 8.0 | 0.00 | 0.00 | 0.00 | 63 | 1006.7 |
| 20260505083511 | 63 | 245 | 1.0 | 3.0 | 0.00 | 0.00 | 0.00 | 63 | 1006.7 |
| 20260505083040 | 64 | 255 | 0.0 | 6.0 | 0.00 | 0.00 | 0.00 | 63 | 1006.6 |
| 20260505082511 | 64 | 281 | 1.0 | 6.0 | 0.00 | 0.00 | 0.00 | 63 | 1006.4 |
| 20260505082012 | 64 | 217 | 1.0 | 12.0 | 0.00 | 0.00 | 0.00 | 63 | 1006.4 |
| 20260505081533 | 64 | 222 | 1.0 | 12.0 | 0.00 | 0.00 | 0.00 | 62 | 1006.3 |
| 20260505081018 | 64 | 238 | 3.0 | 12.0 | 0.00 | 0.00 | 0.00 | 62 | 1006.2 |
| 20260505080513 | 64 | 70 | 1.0 | 8.0 | 0.00 | 0.00 | 0.00 | 63 | 1006.0 |
| 20260505080036 | 64 | 272 | 2.0 | 8.0 | 0.00 | 0.00 | 0.00 | 62 | 1006.0 |
| 20260505075511 | 64 | 290 | 2.0 | 8.0 | 0.00 | 0.00 | 0.00 | 62 | 1005.9 |
| 20260505075016 | 65 | 222 | 2.0 | 6.0 | 0.00 | 0.00 | 0.00 | 62 | 1005.9 |
| 20260505074527 | 65 | 276 | 2.0 | 9.0 | 0.00 | 0.00 | 0.00 | 62 | 1006.0 |
| 20260505074011 | 65 | 138 | 3.0 | 9.0 | 0.00 | 0.00 | 0.00 | 62 | 1006.0 |
| 20260505073512 | 65 | 125 | 2.0 | 10.0 | 0.00 | 0.00 | 0.00 | 62 | 1006.0 |
| 20260505073032 | 65 | 239 | 1.0 | 10.0 | 0.00 | 0.00 | 0.00 | 62 | 1006.0 |
| 20260505072510 | 65 | 243 | 1.0 | 10.0 | 0.00 | 0.00 | 0.00 | 62 | 1006.0 |
| 20260505072011 | 65 | 147 | 2.0 | 11.0 | 0.00 | 0.00 | 0.00 | 61 | 1005.8 |
| 20260505071535 | 65 | 238 | 3.0 | 12.0 | 0.00 | 0.00 | 0.00 | 61 | 1005.8 |
| 20260505071016 | 65 | 252 | 2.0 | 12.0 | 0.00 | 0.00 | 0.00 | 61 | 1005.9 |
| 20260505070511 | 65 | 225 | 2.0 | 10.0 | 0.00 | 0.00 | 0.00 | 62 | 1005.9 |
| 20260505070033 | 65 | 176 | 2.0 | 10.0 | 0.00 | 0.00 | 0.00 | 62 | 1005.9 |
| 20260505065527 | 65 | 240 | 1.0 | 11.0 | 0.00 | 0.00 | 0.00 | 62 | 1005.8 |
| 20260505065012 | 65 | 219 | 2.0 | 11.0 | 0.00 | 0.00 | 0.00 | 62 | 1005.9 |
| 20260505064542 | 64 | 262 | 1.0 | 8.0 | 0.00 | 0.00 | 0.00 | 63 | 1005.9 |
| 20260505064013 | 65 | 200 | 2.0 | 9.0 | 0.00 | 0.00 | 0.00 | 63 | 1005.8 |
| 20260505063513 | 64 | 212 | 2.0 | 9.0 | 0.00 | 0.00 | 0.00 | 63 | 1005.8 |
| 20260505063031 | 64 | 221 | 2.0 | 7.0 | 0.00 | 0.00 | 0.00 | 63 | 1005.6 |
| 20260505062513 | 64 | 164 | 3.0 | 7.0 | 0.00 | 0.00 | 0.00 | 64 | 1005.7 |
| 20260505062012 | 64 | 212 | 2.0 | 7.0 | 0.00 | 0.00 | 0.00 | 64 | 1005.8 |
| 20260505061538 | 64 | 265 | 1.0 | 7.0 | 0.00 | 0.00 | 0.00 | 64 | 1005.7 |
| 20260505061011 | 64 | 212 | 2.0 | 7.0 | 0.00 | 0.00 | 0.00 | 64 | 1005.7 |
| 20260505060513 | 64 | 119 | 2.0 | 10.0 | 0.00 | 0.00 | 0.00 | 64 | 1005.8 |
| 20260505060031 | 64 | 137 | 2.0 | 10.0 | 0.00 | 0.00 | 0.00 | 64 | 1005.8 |
| 20260505055513 | 64 | 225 | 2.0 | 7.0 | 0.00 | 0.00 | 0.00 | 64 | 1005.8 |
| 20260505055011 | 65 | 176 | 1.0 | 10.0 | 0.00 | 0.00 | 0.00 | 63 | 1005.9 |
| 20260505054530 | 65 | 208 | 2.0 | 10.0 | 0.00 | 0.00 | 0.00 | 63 | 1005.9 |
| 20260505054017 | 65 | 113 | 1.0 | 9.0 | 0.00 | 0.00 | 0.00 | 63 | 1006.1 |
| 20260505053517 | 65 | 226 | 1.0 | 9.0 | 0.00 | 0.00 | 0.00 | 63 | 1006.1 |
| 20260505053030 | 65 | 231 | 2.0 | 9.0 | 0.00 | 0.00 | 0.00 | 62 | 1006.1 |
| 20260505052513 | 65 | 247 | 3.0 | 9.0 | 0.00 | 0.00 | 0.00 | 62 | 1006.0 |
| 20260505052010 | 65 | 212 | 1.0 | 9.0 | 0.00 | 0.00 | 0.00 | 62 | 1006.1 |
| 20260505051532 | 66 | 172 | 2.0 | 9.0 | 0.00 | 0.00 | 0.00 | 62 | 1006.3 |
| 20260505051013 | 66 | 161 | 2.0 | 11.0 | 0.00 | 0.00 | 0.00 | 62 | 1006.3 |
| 20260505050516 | 65 | 200 | 2.0 | 11.0 | 0.00 | 0.00 | 0.00 | 62 | 1006.4 |
| 20260505041532 | 66 | 0 | 1.0 | 5.0 | 0.00 | 0.00 | 0.00 | 61 | 1006.4 |
| 20260505041012 | 66 | 254 | 0.0 | 5.0 | 0.00 | 0.00 | 0.00 | 61 | 1006.3 |
| 20260505040511 | 66 | 214 | 0.0 | 4.0 | 0.00 | 0.00 | 0.00 | 61 | 1006.4 |
| 20260505040028 | 66 | 0 | 0.0 | 4.0 | 0.00 | 0.00 | 0.00 | 61 | 1006.4 |
| 20260505035512 | 66 | 0 | 0.0 | 4.0 | 0.00 | 0.00 | 0.00 | 61 | 1006.2 |
| 20260505035017 | 66 | 210 | 1.0 | 4.0 | 0.00 | 0.00 | 0.00 | 61 | 1006.2 |
| 20260505034533 | 66 | 255 | 1.0 | 6.0 | 0.00 | 0.00 | 0.00 | 61 | 1006.3 |
| 20260505034017 | 66 | 0 | 0.0 | 6.0 | 0.00 | 0.00 | 0.00 | 62 | 1006.4 |
| 20260505033515 | 66 | 213 | 1.0 | 5.0 | 0.00 | 0.00 | 0.00 | 62 | 1006.2 |
| 20260505033035 | 66 | 0 | 0.0 | 5.0 | 0.00 | 0.00 | 0.00 | 62 | 1006.2 |
| 20260505032512 | 66 | 202 | 1.0 | 5.0 | 0.00 | 0.00 | 0.00 | 62 | 1006.2 |
| 20260505032014 | 66 | 212 | 1.0 | 5.0 | 0.00 | 0.00 | 0.00 | 63 | 1006.2 |
| 20260505031530 | 66 | 207 | 0.0 | 7.0 | 0.00 | 0.00 | 0.00 | 63 | 1006.2 |
| 20260505031011 | 66 | 212 | 0.0 | 7.0 | 0.00 | 0.00 | 0.00 | 63 | 1006.3 |
| 20260505030511 | 66 | 143 | 1.0 | 6.0 | 0.00 | 0.00 | 0.00 | 63 | 1006.3 |
| 20260505030030 | 66 | 203 | 1.0 | 4.0 | 0.00 | 0.00 | 0.00 | 63 | 1006.1 |
| 20260505025511 | 66 | 212 | 1.0 | 4.0 | 0.00 | 0.00 | 0.00 | 63 | 1006.1 |
| 20260505025011 | 66 | 210 | 1.0 | 4.0 | 0.00 | 0.00 | 0.00 | 63 | 1006.2 |
| 20260505024539 | 66 | 186 | 1.0 | 3.0 | 0.00 | 0.00 | 0.00 | 63 | 1006.0 |
| 20260505024012 | 66 | 106 | 1.0 | 4.0 | 0.00 | 0.00 | 0.00 | 63 | 1006.1 |
| 20260505023512 | 66 | 232 | 1.0 | 4.0 | 0.00 | 0.00 | 0.00 | 63 | 1006.0 |
| 20260505023029 | 66 | 210 | 0.0 | 3.0 | 0.00 | 0.00 | 0.00 | 63 | 1006.0 |
| 20260505022517 | 66 | 214 | 1.0 | 3.0 | 0.00 | 0.00 | 0.00 | 64 | 1006.0 |
| 20260505022013 | 66 | 214 | 1.0 | 4.0 | 0.00 | 0.00 | 0.00 | 64 | 1006.0 |
| 20260505021537 | 66 | 157 | 0.0 | 4.0 | 0.00 | 0.00 | 0.00 | 64 | 1006.0 |
| 20260505021011 | 66 | 227 | 1.0 | 4.0 | 0.00 | 0.00 | 0.00 | 65 | 1006.0 |
| 20260505020509 | 65 | 137 | 0.0 | 3.0 | 0.00 | 0.00 | 0.00 | 65 | 1006.0 |
| 20260505020032 | 65 | 0 | 0.0 | 3.0 | 0.00 | 0.00 | 0.00 | 65 | 1005.9 |
| 20260505015512 | 65 | 0 | 0.0 | 3.0 | 0.00 | 0.00 | 0.00 | 65 | 1006.0 |
| 20260505015012 | 65 | 187 | 0.0 | 3.0 | 0.00 | 0.00 | 0.00 | 65 | 1006.0 |
| 20260505014536 | 66 | 210 | 1.0 | 3.0 | 0.00 | 0.00 | 0.00 | 64 | 1006.0 |
| 20260505014009 | 66 | 200 | 0.0 | 3.0 | 0.00 | 0.00 | 0.00 | 64 | 1006.0 |
| 20260505013517 | 66 | 215 | 0.0 | 3.0 | 0.00 | 0.00 | 0.00 | 63 | 1005.9 |
| 20260505013030 | 66 | 132 | 1.0 | 3.0 | 0.00 | 0.00 | 0.00 | 63 | 1005.8 |
| 20260505012511 | 66 | 177 | 0.0 | 2.0 | 0.00 | 0.00 | 0.00 | 63 | 1005.7 |
| 20260505012015 | 66 | 212 | 1.0 | 2.0 | 0.00 | 0.00 | 0.00 | 62 | 1005.6 |
| 20260505011527 | 67 | 0 | 0.0 | 2.0 | 0.00 | 0.00 | 0.00 | 62 | 1005.6 |
| 20260505011012 | 67 | 0 | 0.0 | 2.0 | 0.00 | 0.00 | 0.00 | 61 | 1005.6 |
| 20260505010513 | 67 | 0 | 0.0 | 2.0 | 0.00 | 0.00 | 0.00 | 60 | 1005.6 |
| 20260505010031 | 68 | 136 | 0.0 | 3.0 | 0.00 | 0.00 | 0.00 | 59 | 1005.6 |
| 20260505005509 | 68 | 220 | 1.0 | 3.0 | 0.00 | 0.00 | 0.00 | 58 | 1005.6 |
| 20260505005010 | 69 | 202 | 1.0 | 3.0 | 0.00 | 0.00 | 0.00 | 58 | 1005.7 |
| 20260505004541 | 69 | 204 | 1.0 | 3.0 | 0.00 | 0.00 | 0.00 | 57 | 1005.7 |
| 20260505004014 | 69 | 192 | 0.0 | 3.0 | 0.00 | 0.00 | 0.00 | 56 | 1005.7 |
| 20260505003516 | 69 | 0 | 1.0 | 5.0 | 0.00 | 0.00 | 0.00 | 55 | 1005.6 |
| 20260505003028 | 70 | 245 | 1.0 | 5.0 | 0.00 | 0.00 | 0.00 | 54 | 1005.6 |
| 20260505002515 | 70 | 0 | 1.0 | 4.0 | 0.00 | 0.00 | 0.00 | 54 | 1005.7 |
| 20260505002011 | 70 | 190 | 1.0 | 4.0 | 0.00 | 0.00 | 0.00 | 53 | 1005.6 |
| 20260505001534 | 71 | 133 | 0.0 | 4.0 | 0.00 | 0.00 | 0.00 | 52 | 1005.6 |
| 20260505001012 | 71 | 219 | 1.0 | 7.0 | 0.00 | 0.00 | 0.00 | 51 | 1005.5 |
| 20260505000509 | 72 | 249 | 1.0 | 7.0 | 0.00 | 0.00 | 0.00 | 51 | 1005.5 |
| 20260505000037 | 72 | 207 | 2.0 | 7.0 | 0.00 | 0.00 | 0.00 | 50 | 1005.5 |
| 20260504235512 | 72 | 212 | 2.0 | 7.0 | 0.00 | 0.00 | 0.00 | 50 | 1005.6 |
| 20260504235012 | 72 | 151 | 1.0 | 6.0 | 0.00 | 0.00 | 0.00 | 49 | 1005.7 |
| 20260504234531 | 73 | 0 | 1.0 | 7.0 | 0.00 | 0.00 | 0.00 | 49 | 1005.7 |
| 20260504234011 | 73 | 259 | 2.0 | 11.0 | 0.00 | 0.00 | 0.00 | 49 | 1005.8 |
| 20260504233510 | 73 | 203 | 3.0 | 11.0 | 0.00 | 0.00 | 0.00 | 48 | 1005.7 |
| 20260504233029 | 73 | 236 | 3.0 | 11.0 | 0.00 | 0.00 | 0.00 | 49 | 1005.7 |
| 20260504232511 | 73 | 212 | 2.0 | 9.0 | 0.00 | 0.00 | 0.00 | 50 | 1005.8 |
| 20260504232012 | 72 | 205 | 3.0 | 8.0 | 0.00 | 0.00 | 0.00 | 51 | 1005.8 |
| 20260504231540 | 72 | 212 | 2.0 | 6.0 | 0.00 | 0.00 | 0.00 | 51 | 1005.9 |
| 20260504231014 | 72 | 238 | 1.0 | 6.0 | 0.00 | 0.00 | 0.00 | 50 | 1005.8 |
| 20260504230513 | 72 | 247 | 1.0 | 9.0 | 0.00 | 0.00 | 0.00 | 50 | 1005.9 |
| 20260504230028 | 73 | 118 | 3.0 | 9.0 | 0.00 | 0.00 | 0.00 | 49 | 1006.0 |
| 20260504225511 | 73 | 251 | 2.0 | 8.0 | 0.00 | 0.00 | 0.00 | 49 | 1006.1 |
| 20260504225012 | 73 | 241 | 2.0 | 12.0 | 0.00 | 0.00 | 0.00 | 49 | 1006.3 |
| 20260504224528 | 73 | 266 | 3.0 | 12.0 | 0.00 | 0.00 | 0.00 | 48 | 1006.4 |
| 20260504224016 | 73 | 148 | 3.0 | 17.0 | 0.00 | 0.00 | 0.00 | 48 | 1006.5 |
| 20260504223514 | 73 | 245 | 4.0 | 17.0 | 0.00 | 0.00 | 0.00 | 48 | 1006.6 |
| 20260504223030 | 73 | 249 | 1.0 | 7.0 | 0.00 | 0.00 | 0.00 | 48 | 1006.6 |
| 20260504222513 | 72 | 238 | 2.0 | 7.0 | 0.00 | 0.00 | 0.00 | 50 | 1006.6 |
| 20260504222010 | 72 | 254 | 2.0 | 7.0 | 0.00 | 0.00 | 0.00 | 52 | 1006.6 |
| 20260504221530 | 71 | 135 | 1.0 | 4.0 | 0.00 | 0.00 | 0.00 | 54 | 1006.7 |
| 20260504221012 | 71 | 251 | 1.0 | 9.0 | 0.00 | 0.00 | 0.00 | 53 | 1006.6 |
| 20260504220512 | 71 | 239 | 3.0 | 10.0 | 0.00 | 0.00 | 0.00 | 53 | 1006.7 |
| 20260504220032 | 71 | 233 | 2.0 | 12.0 | 0.00 | 0.00 | 0.00 | 53 | 1006.8 |
| 20260504215512 | 71 | 243 | 4.0 | 12.0 | 0.00 | 0.00 | 0.00 | 52 | 1006.8 |
| 20260504215012 | 72 | 190 | 1.0 | 9.0 | 0.00 | 0.00 | 0.00 | 51 | 1006.9 |
| 20260504214531 | 72 | 249 | 2.0 | 9.0 | 0.00 | 0.00 | 0.00 | 52 | 1007.0 |
| 20260504214011 | 71 | 234 | 2.0 | 14.0 | 0.00 | 0.00 | 0.00 | 51 | 1007.0 |
| 20260504213511 | 72 | 171 | 3.0 | 14.0 | 0.00 | 0.00 | 0.00 | 50 | 1007.1 |
| 20260504213030 | 73 | 97 | 4.0 | 12.0 | 0.00 | 0.00 | 0.00 | 49 | 1007.2 |
| 20260504212514 | 73 | 243 | 2.0 | 10.0 | 0.00 | 0.00 | 0.00 | 49 | 1007.0 |
| 20260504212015 | 73 | 246 | 3.0 | 11.0 | 0.00 | 0.00 | 0.00 | 49 | 1007.0 |
| 20260504211531 | 73 | 238 | 2.0 | 11.0 | 0.00 | 0.00 | 0.00 | 49 | 1006.7 |
| 20260504211009 | 72 | 231 | 2.0 | 6.0 | 0.00 | 0.00 | 0.00 | 50 | 1006.6 |
| 20260504210511 | 71 | 265 | 2.0 | 13.0 | 0.00 | 0.00 | 0.00 | 51 | 1006.6 |
| 20260504210043 | 71 | 243 | 2.0 | 13.0 | 0.00 | 0.00 | 0.00 | 51 | 1006.6 |
| 20260504205512 | 71 | 252 | 2.0 | 13.0 | 0.00 | 0.00 | 0.00 | 51 | 1006.6 |
| 20260504205012 | 71 | 250 | 2.0 | 8.0 | 0.00 | 0.00 | 0.00 | 51 | 1006.7 |
| 20260504204528 | 71 | 248 | 2.0 | 10.0 | 0.00 | 0.00 | 0.00 | 52 | 1006.6 |
| 20260504204011 | 71 | 278 | 3.0 | 10.0 | 0.00 | 0.00 | 0.00 | 52 | 1007.0 |
| 20260504203512 | 71 | 238 | 4.0 | 10.0 | 0.00 | 0.00 | 0.00 | 52 | 1007.4 |
| 20260504203033 | 72 | 154 | 4.0 | 10.0 | 0.00 | 0.00 | 0.00 | 52 | 1007.1 |
| 20260504202513 | 72 | 95 | 3.0 | 9.0 | 0.00 | 0.00 | 0.00 | 51 | 1007.2 |
| 20260504202013 | 72 | 238 | 4.0 | 14.0 | 0.00 | 0.00 | 0.00 | 50 | 1007.7 |
| 20260504201531 | 72 | 247 | 4.0 | 14.0 | 0.00 | 0.00 | 0.00 | 49 | 1007.7 |
| 20260504201012 | 73 | 127 | 3.0 | 12.0 | 0.00 | 0.00 | 0.00 | 49 | 1007.9 |
| 20260504200514 | 73 | 200 | 4.0 | 12.0 | 0.00 | 0.00 | 0.00 | 48 | 1007.9 |
| 20260504200028 | 74 | 267 | 3.0 | 12.0 | 0.00 | 0.00 | 0.00 | 47 | 1007.9 |
| 20260504195512 | 75 | 157 | 4.0 | 11.0 | 0.00 | 0.00 | 0.00 | 46 | 1007.8 |
| 20260504195012 | 75 | 214 | 3.0 | 17.0 | 0.00 | 0.00 | 0.00 | 46 | 1007.8 |
| 20260504194542 | 75 | 244 | 5.0 | 17.0 | 0.00 | 0.00 | 0.00 | 46 | 1007.6 |
| 20260504194012 | 76 | 247 | 4.0 | 11.0 | 0.00 | 0.00 | 0.00 | 45 | 1007.6 |
| 20260504193512 | 75 | 253 | 4.0 | 14.0 | 0.00 | 0.00 | 0.00 | 46 | 1007.8 |
| 20260504193030 | 75 | 240 | 4.0 | 14.0 | 0.00 | 0.00 | 0.00 | 46 | 1007.8 |
| 20260504192511 | 76 | 248 | 3.0 | 8.0 | 0.00 | 0.00 | 0.00 | 45 | 1007.6 |
| 20260504192011 | 75 | 230 | 2.0 | 8.0 | 0.00 | 0.00 | 0.00 | 45 | 1007.4 |
| 20260504191535 | 76 | 82 | 3.0 | 9.0 | 0.00 | 0.00 | 0.00 | 44 | 1007.4 |
| 20260504191013 | 76 | 143 | 3.0 | 9.0 | 0.00 | 0.00 | 0.00 | 44 | 1007.5 |
| 20260504190513 | 77 | 252 | 2.0 | 12.0 | 0.00 | 0.00 | 0.00 | 44 | 1007.5 |
| 20260504190032 | 76 | 144 | 2.0 | 12.0 | 0.00 | 0.00 | 0.00 | 45 | 1007.3 |
| 20260504185511 | 75 | 117 | 4.0 | 14.0 | 0.00 | 0.00 | 0.00 | 46 | 1007.4 |
| 20260504185010 | 76 | 181 | 4.0 | 14.0 | 0.00 | 0.00 | 0.00 | 44 | 1007.4 |
| 20260504184537 | 76 | 215 | 5.0 | 14.0 | 0.00 | 0.00 | 0.00 | 44 | 1007.4 |
| 20260504184010 | 76 | 153 | 5.0 | 11.0 | 0.00 | 0.00 | 0.00 | 45 | 1007.3 |
| 20260504183513 | 75 | 262 | 3.0 | 14.0 | 0.00 | 0.00 | 0.00 | 46 | 1007.4 |
| 20260504183031 | 75 | 226 | 2.0 | 14.0 | 0.00 | 0.00 | 0.00 | 45 | 1007.5 |
| 20260504182509 | 75 | 226 | 3.0 | 11.0 | 0.00 | 0.00 | 0.00 | 47 | 1007.6 |
| 20260504182012 | 74 | 266 | 2.0 | 6.0 | 0.00 | 0.00 | 0.00 | 46 | 1007.6 |
| 20260504181530 | 74 | 239 | 2.0 | 15.0 | 0.00 | 0.00 | 0.00 | 46 | 1007.7 |
| 20260504181017 | 74 | 205 | 3.0 | 15.0 | 0.00 | 0.00 | 0.00 | 48 | 1007.5 |
| 20260504180512 | 74 | 64 | 6.0 | 15.0 | 0.00 | 0.00 | 0.00 | 47 | 1007.6 |
| 20260504180033 | 74 | 22 | 3.0 | 9.0 | 0.00 | 0.00 | 0.00 | 48 | 1007.6 |
| 20260504175510 | 74 | 229 | 3.0 | 9.0 | 0.00 | 0.00 | 0.00 | 46 | 1007.7 |
| 20260504175012 | 75 | 122 | 2.0 | 6.0 | 0.00 | 0.00 | 0.00 | 46 | 1007.8 |
| 20260504174530 | 75 | 145 | 1.0 | 7.0 | 0.00 | 0.00 | 0.00 | 48 | 1007.8 |
| 20260504174010 | 75 | 297 | 3.0 | 8.0 | 0.00 | 0.00 | 0.00 | 47 | 1007.9 |
| 20260504173513 | 74 | 191 | 2.0 | 13.0 | 0.00 | 0.00 | 0.00 | 47 | 1007.8 |
| 20260504173035 | 74 | 209 | 2.0 | 13.0 | 0.00 | 0.00 | 0.00 | 49 | 1007.8 |
| 20260504172512 | 73 | 139 | 3.0 | 13.0 | 0.00 | 0.00 | 0.00 | 49 | 1007.8 |
| 20260504172011 | 73 | 204 | 4.0 | 11.0 | 0.00 | 0.00 | 0.00 | 47 | 1007.9 |
| 20260504171532 | 72 | 171 | 4.0 | 11.0 | 0.00 | 0.00 | 0.00 | 49 | 1007.9 |
| 20260504171014 | 72 | 274 | 3.0 | 11.0 | 0.00 | 0.00 | 0.00 | 47 | 1007.9 |
| 20260504170513 | 72 | 122 | 4.0 | 14.0 | 0.00 | 0.00 | 0.00 | 49 | 1008.0 |